Regional Weather Roundup
Issued by NWS

Home | Current Version | Previous Version | Graphics & Text | Print | Product List | Glossary On
Versions: 1 2 3 4 5 6 7 8 9 10 11 12 13 14 15 16 17 18 19 20 21 22 23 24 25 26 27 28 29 30 31 32 33 34 35 36 37 38 39 40 41 42 43 44 45 46 47 48 49 50
000
ASUS45 KCYS 211410
RWRWY

WYOMING REGIONAL WEATHER ROUNDUP
NATIONAL WEATHER SERVICE CHEYENNE WY
700 AM MST TUE NOV 21 2017

NOTE:  "FAIR" INDICATES FEW OR NO CLOUDS BELOW 12,000 FEET
WITH NO SIGNIFICANT WEATHER AND/OR OBSTRUCTIONS TO VISIBILITY.

WYZ001-211500-
YELLOWSTONE NATIONAL PARK

CITY           SKY/WX    TMP DP  RH WIND       PRES   REMARKS
LK YELLOWSTONE   N/A     23  22  96 VRB3      30.25R
W YELLOWSTONE  NOT AVBL

$$
WYZ002>013-054>058-071-098>099-211500-
NORTHERN WYOMING

CITY           SKY/WX    TMP DP  RH WIND       PRES   REMARKS
JACKSON        FLURRIES  34  32  92 NW3       30.24R
CODY           CLOUDY    25  24  96 CALM      30.23R
GREYBULL       FAIR      28  26  92 NW8       30.23R WCI  20
WORLAND        FAIR      30  29  96 SE8       30.22R WCI  22
SHERIDAN       CLOUDY    27  24  89 S3        30.27R
BUFFALO        CLOUDY    24  21  88 SE6       30.25R WCI  17
GILLETTE       CLOUDY    25  20  81 NW3       30.26R
HULETT         CLOUDY    27  21  80 W3        30.25R
NEWCASTLE      CLOUDY    27  19  74 NW13      30.23R WCI  16

$$
WYZ014>020-022>026-101>103-211500-
CENTRAL WYOMING

CITY           SKY/WX    TMP DP  RH WIND       PRES   REMARKS
BIG PINEY      FOG       25  25 100 SE3       30.23R VSB 1/4
PINEDALE       FOG       28  28 100 E5        30.24R VSB 3/4 WCI  23
DUBOIS         FAIR      32  28  86 NW6       30.18R WCI  26
LANDER           N/A     34  28  79 E5        30.18R WCI  30
RIVERTON       MOCLDY    34  30  85 N7        30.20R WCI  28
CASPER         CLOUDY    29  27  92 N12       30.23R WCI  19
DOUGLAS        CLOUDY    28  25  88 N6        30.26R WCI  22

$$
WYZ021-027>030-104>119-211500-
SOUTHERN WYOMING

CITY           SKY/WX    TMP DP  RH WIND       PRES   REMARKS
EVANSTON       MOCLDY    37  35  92 SW14      30.29R WCI  28
KEMMERER       CLOUDY    36  34  93 W6        30.26R WCI  31
FORT BRIDGER   CLOUDY    40  38  93 SW12      30.31R WCI  33
ROCK SPRINGS   CLOUDY    36  33  89 SW16      30.24R WCI  26
DIXON          CLOUDY    37  30  77 CALM      30.25R
RAWLINS        CLOUDY    35  33  92 NW12      30.21R WCI  27
SARATOGA       LGT RAIN  34  34 100 NW7       30.23R WCI  28
LARAMIE        LGT SNOW  33  33 100 NW18      30.18R FOG     WCI  22
CHEYENNE       CLOUDY    34  31  88 N17       30.18R WCI  23
TORRINGTON     CLOUDY    34  29  82 N5        30.23R WCI  30
PINE BLUFFS    CLOUDY    32  25  74 MISG      30.19R

$$



USA.gov is the U.S. government's official web portal to all federal, state and local government web resources and services.